Change the Weather History Date:

Sunday, February 2, 2014

  Actual Average Record
Temperature  
Mean Temperature 2 °F -  
Max Temperature 15 °F 26 °F 44 °F (1987)
Min Temperature -11 °F 6 °F -27 °F (1951)
Degree Days  
Heating Degree Days 63    
Moisture  
Dew Point -5 °F    
Average Humidity 66    
Maximum Humidity 82    
Minimum Humidity 42    
Precipitation  
Precipitation 0.00 in - - ()
Sea Level Pressure  
Sea Level Pressure 30.21 in    
Wind  
Wind Speed 5 mph (West)    
Max Wind Speed 12 mph    
Max Gust Speed -    
Visibility 10 miles    
Events      
Averages and records for this station are not official NWS values.
T = Trace of Precipitation, MM = Missing Value Source: NWS Daily Summary

Daily Weather History Graph

Daily Weather History Graph

Search for Another Location

Airport or City:

Trip Planner

Search our weather history database for the weather conditions in past years. The results will help you decide how hot, cold, wet, or windy it might be!

Date:

Astronomy

Feb. 02, 2014 Rise Set
Actual Time 7:13 AM CST 5:07 PM CST
Civil Twilight 6:42 AM CST 5:37 PM CST
Nautical Twilight 6:07 AM CST 6:12 PM CST
Astronomical Twilight 5:33 AM CST 6:46 PM CST
Moon 8:30 AM CST (2/2) 9:01 PM CST (2/2)
Length of Visible Light 10h 55m
Length of Day
9h 54m
Waxing Crescent, 11% of the Moon is Illuminated
Feb 2
Waxing Crescent
Feb 6
First Quarter
Feb 14
Full
Feb 22
Last Quarter
Mar 1
New

Hourly Weather History & Observations

Time (CST) Temp. Windchill Dew Point Humidity Pressure Visibility Wind Dir Wind Speed Gust Speed Precip Events Conditions
12:15 AM 9.3 °F 1.0 °F 2.1 °F 73% 30.10 in 10.0 mi West 4.6 mph - N/A   Clear
12:35 AM 9.0 °F 0.6 °F 2.1 °F 74% 30.10 in 10.0 mi WNW 4.6 mph - N/A   Clear
12:55 AM 9.1 °F 0.8 °F 2.3 °F 74% 30.10 in 10.0 mi WNW 4.6 mph - N/A   Clear
1:15 AM 9.5 °F -1.5 °F 2.7 °F 74% 30.10 in 10.0 mi WNW 6.9 mph - N/A   Clear
1:35 AM 9.3 °F -0.5 °F 2.3 °F 73% 30.10 in 10.0 mi WNW 5.8 mph - N/A   Clear
1:55 AM 9.1 °F -0.7 °F 2.3 °F 74% 30.10 in 10.0 mi WNW 5.8 mph - N/A   Clear
2:15 AM 9.0 °F -0.9 °F 2.1 °F 74% 30.10 in 10.0 mi WNW 5.8 mph - N/A   Clear
2:35 AM 8.4 °F -1.6 °F 1.4 °F 73% 30.12 in 10.0 mi West 5.8 mph - N/A   Clear
2:55 AM 6.1 °F -4.3 °F 0.1 °F 77% 30.12 in 10.0 mi West 5.8 mph - N/A   Clear
3:15 AM 5.7 °F -3.2 °F 0.5 °F 79% 30.13 in 10.0 mi West 4.6 mph - N/A   Clear
3:35 AM 4.8 °F -4.3 °F -0.9 °F 77% 30.13 in 10.0 mi West 4.6 mph - N/A   Clear
3:55 AM 4.6 °F -2.5 °F -0.4 °F 80% 30.13 in 10.0 mi WNW 3.5 mph - N/A   Clear
4:15 AM 4.1 °F -6.7 °F -0.4 °F 82% 30.14 in 10.0 mi West 5.8 mph - N/A   Clear
4:35 AM 4.1 °F -6.7 °F -0.9 °F 80% 30.14 in 10.0 mi West 5.8 mph - N/A   Clear
4:55 AM 3.9 °F -6.9 °F -1.1 °F 80% 30.15 in 10.0 mi West 5.8 mph - N/A   Clear
5:15 AM 3.2 °F -7.8 °F -1.3 °F 82% 30.15 in 10.0 mi West 5.8 mph - N/A   Clear
5:35 AM 2.5 °F -7.0 °F -2.4 °F 80% 30.16 in 10.0 mi West 4.6 mph - N/A   Clear
5:55 AM 1.2 °F -10.1 °F -3.6 °F 80% 30.16 in 10.0 mi WSW 5.8 mph - N/A   Clear
6:15 AM 0.5 °F -11.0 °F -4.2 °F 81% 30.17 in 10.0 mi West 5.8 mph - N/A   Clear
6:35 AM 1.6 °F -9.7 °F -3.5 °F 79% 30.18 in 10.0 mi West 5.8 mph - N/A   Clear
6:55 AM 0.7 °F -9.1 °F -5.1 °F 77% 30.19 in 10.0 mi West 4.6 mph - N/A   Clear
7:15 AM -0.4 °F -8.3 °F -5.3 °F 80% 30.20 in 10.0 mi West 3.5 mph - N/A   Clear
7:35 AM -4.0 °F -12.4 °F -9.6 °F 77% 30.21 in 7.0 mi WSW 3.5 mph - N/A   Clear
7:55 AM 0.5 °F -11.0 °F -4.0 °F 81% 30.21 in 10.0 mi West 5.8 mph - N/A   Clear
8:15 AM 1.2 °F -10.1 °F -4.0 °F 79% 30.22 in 10.0 mi West 5.8 mph - N/A   Clear
8:35 AM 3.9 °F -6.9 °F -0.9 °F 80% 30.22 in 10.0 mi West 5.8 mph - N/A   Clear
8:55 AM 5.4 °F -6.5 °F 0.3 °F 80% 30.23 in 10.0 mi West 6.9 mph - N/A   Clear
9:15 AM 6.6 °F -6.1 °F 0.9 °F 77% 30.23 in 10.0 mi WNW 8.1 mph - N/A   Clear
9:35 AM 7.3 °F -5.2 °F -0.8 °F 69% 30.24 in 10.0 mi WNW 8.1 mph - N/A   Clear
9:55 AM 8.6 °F -2.6 °F -1.5 °F 64% 30.24 in 10.0 mi West 6.9 mph - N/A   Clear
10:15 AM 9.7 °F -1.3 °F -2.0 °F 59% 30.24 in 10.0 mi NW 6.9 mph - N/A   Clear
10:35 AM 10.0 °F 3.6 °F -2.2 °F 58% 30.26 in 10.0 mi WNW 3.5 mph - N/A   Clear
10:55 AM 11.7 °F 1.1 °F -2.0 °F 54% 30.26 in 10.0 mi West 6.9 mph - N/A   Clear
11:15 AM 12.0 °F -0.4 °F -2.2 °F 53% 30.26 in 10.0 mi West 9.2 mph - N/A   Clear
11:35 AM 12.9 °F 2.6 °F -3.1 °F 49% 30.25 in 10.0 mi West 6.9 mph - N/A   Clear
11:55 AM 13.6 °F 1.6 °F -2.6 °F 49% 30.23 in 10.0 mi West 9.2 mph - N/A   Clear
12:15 PM 14.0 °F 3.9 °F -3.5 °F 46% 30.23 in 10.0 mi West 6.9 mph - N/A   Clear
12:35 PM 14.2 °F 2.2 °F -3.1 °F 46% 30.22 in 10.0 mi West 9.2 mph - N/A   Clear
12:55 PM 14.9 °F 5.0 °F -3.6 °F 44% 30.21 in 10.0 mi WNW 6.9 mph - N/A   Clear
1:15 PM 15.1 °F 5.2 °F -3.5 °F 44% 30.21 in 10.0 mi West 6.9 mph - N/A   Clear
1:35 PM 15.6 °F 7.0 °F -4.0 °F 42% 30.22 in 10.0 mi WSW 5.8 mph - N/A   Clear
1:55 PM 15.6 °F 4.9 °F -3.6 °F 42% 30.21 in 10.0 mi West 8.1 mph - N/A   Clear
2:15 PM 15.8 °F 5.1 °F -3.6 °F 42% 30.21 in 10.0 mi WNW 8.1 mph - N/A   Clear
2:35 PM 15.6 °F 3.2 °F -3.3 °F 43% 30.22 in 10.0 mi WSW 10.4 mph - N/A   Clear
2:55 PM 15.1 °F 4.2 °F -3.6 °F 43% 30.22 in 10.0 mi West 8.1 mph - N/A   Clear
3:15 PM 15.1 °F 4.2 °F -4.2 °F 42% 30.23 in 10.0 mi West 8.1 mph - N/A   Clear
3:35 PM 14.5 °F 1.1 °F -4.7 °F 42% 30.26 in 10.0 mi WSW 11.5 mph - N/A   Clear
3:55 PM 13.3 °F 2.0 °F -4.9 °F 44% 30.26 in 10.0 mi West 8.1 mph - N/A   Clear
4:15 PM 13.1 °F 1.8 °F -5.8 °F 43% 30.26 in 10.0 mi West 8.1 mph - N/A   Clear
4:35 PM 12.2 °F -0.2 °F -6.0 °F 44% 30.26 in 10.0 mi West 9.2 mph - N/A   Clear
4:55 PM 10.6 °F -1.3 °F -6.3 °F 47% 30.27 in 10.0 mi West 8.1 mph - N/A   Clear
5:15 PM 8.8 °F -1.1 °F -6.9 °F 49% 30.27 in 10.0 mi West 5.8 mph - N/A   Clear
5:35 PM 8.1 °F -0.5 °F -6.5 °F 52% 30.27 in 10.0 mi West 4.6 mph - N/A   Clear
5:55 PM 7.5 °F 0.8 °F -6.2 °F 54% 30.27 in 10.0 mi West 3.5 mph - N/A   Clear
6:15 PM 6.4 °F -0.5 °F -7.2 °F 54% 30.27 in 10.0 mi West 3.5 mph - N/A   Clear
6:35 PM 4.1 °F -3.2 °F -7.4 °F 59% 30.26 in 10.0 mi WNW 3.5 mph - N/A   Clear
6:55 PM 3.7 °F - -7.1 °F 61% 30.26 in 10.0 mi Calm Calm - N/A   Clear
7:15 PM -2.6 °F - -11.2 °F 67% 30.25 in 10.0 mi Calm Calm - N/A   Clear
7:35 PM -3.3 °F - -10.3 °F 72% 30.24 in 10.0 mi Calm Calm - N/A   Clear
7:55 PM -3.6 °F - -11.0 °F 71% 30.24 in 10.0 mi Calm Calm - N/A   Clear
8:15 PM -5.3 °F - -11.9 °F 73% 30.25 in 10.0 mi Calm Calm - N/A   Clear
8:35 PM -5.4 °F - -11.6 °F 75% 30.25 in 10.0 mi Calm Calm - N/A   Clear
8:55 PM -7.1 °F - -13.2 °F 75% 30.24 in 10.0 mi Calm Calm - N/A   Clear
9:15 PM -8.1 °F - -14.3 °F 75% 30.24 in 10.0 mi Calm Calm - N/A   Clear
9:35 PM -8.9 °F - -14.8 °F 75% 30.25 in 10.0 mi Calm Calm - N/A   Clear
9:55 PM -9.4 °F -18.6 °F -15.7 °F 74% 30.26 in 10.0 mi SSW 3.5 mph - N/A   Clear
10:15 PM -11.0 °F - -16.4 °F 77% 30.25 in 10.0 mi Calm Calm - N/A   Clear
10:35 PM -8.9 °F - -14.3 °F 77% 30.26 in 10.0 mi Calm Calm - N/A   Clear
10:55 PM -9.9 °F - -16.4 °F 73% 30.26 in 10.0 mi Calm Calm - N/A   Clear
11:15 PM -10.7 °F - -16.8 °F 74% 30.27 in 10.0 mi Calm Calm - N/A   Clear
11:35 PM -10.8 °F - -17.1 °F 74% 30.28 in 10.0 mi Calm Calm - N/A   Clear
11:55 PM -9.4 °F - -15.2 °F 76% 30.28 in 10.0 mi Calm Calm - N/A   Clear